This is the latest recevied weather packets stored in our database for station/object HK6LRQ-24. If no packets are shown the sender has not sent any weather packets the latest 1 day(s).
| Time | Temp. | Humidity | Pressure | Rain* | Wind** | Luminosity | Snow |
|---|---|---|---|---|---|---|---|
| 1778081730 | 22.22° C | 94% | 1014 hPa | 0 mm | - | - | - |
| 1778078128 | 22.78° C | 94% | 1016 hPa | 0 mm | - | - | - |
| 1778076327 | 22.78° C | 94% | 1017 hPa | 0 mm | - | - | - |
| 1778074526 | 17.78° C | 92% | 1016 hPa | 0 mm | - | - | - |
| 1778072725 | 18.33° C | 92% | 1016 hPa | 0 mm | - | - | - |
| 1778070924 | 18.33° C | 92% | 1016 hPa | 0 mm | - | - | - |
| 1778069123 | 18.89° C | 93% | 1016 hPa | 0 mm | - | - | - |
| 1778067322 | 18.89° C | 92% | 1016 hPa | 0 mm | - | - | - |
| 1778065521 | 18.89° C | 92% | 1016 hPa | 0 mm | - | - | - |
| 1778051112 | 18.89° C | 91% | 1016 hPa | 0 mm | - | - | - |
| 1778049311 | 18.89° C | 91% | 1015 hPa | 0 mm | - | - | - |
| 1778047510 | 18.89° C | 91% | 1015 hPa | 0 mm | - | - | - |
| 1778045709 | 18.89° C | 90% | 1015 hPa | 0 mm | - | - | - |
| 1778043908 | 18.89° C | 89% | 1016 hPa | 0 mm | - | - | - |
| 1778031300 | 21.11° C | 85% | 1014 hPa | 0 mm | - | - | - |
| 1778029499 | 21.11° C | 84% | 1014 hPa | 0 mm | - | - | - |
| 1778022296 | 22.22° C | 82% | 1011 hPa | 0 mm | - | - | - |
| 1778020495 | 22.22° C | 81% | 1010 hPa | 0 mm | - | - | - |
| 1778018694 | 22.22° C | 82% | 1009 hPa | 0 mm | - | - | - |
| 1778015092 | 22.22° C | 83% | 1009 hPa | 0 mm | - | - | - |
| 1778009689 | 23.89° C | 83% | 1009 hPa | 0 mm | - | - | - |
* Rain latest hour (hover to see other rain measurements)
** Current wind speed in m/s (hover to see current wind gust speed)